Billings, MT

1:39 PM MST on February 20, 2017 (GMT -0700)
Billings Logan International

Weather History for KBIL - July, 2013

Change the Weather History Date:

Sunday, July 14, 2013

  Actual Average Record
Temperature  
Mean Temperature 71 °F 73 °F  
Max Temperature 85 °F 87 °F 108 °F (2002)
Min Temperature 57 °F 59 °F 49 °F (1952)
Degree Days  
Heating Degree Days 0 0  
Month to date heating degree days 0 12  
Since 1 June heating degree days 73 108  
Since 1 July heating degree days 0 12  
Cooling Degree Days 6 8  
Month to date cooling degree days 152 99  
Year to date cooling degree days 275 201  
Since 1 June cooling degree days 248 184  
Growing Degree Days 20 (Base 50)    
Moisture  
Dew Point 50 °F    
Average Humidity 55    
Maximum Humidity 77    
Minimum Humidity 32    
Precipitation  
Precipitation 0.00 in 0.04 in 0.88 in (1991)
Month to date precipitation 0.51 0.65  
Year to date precipitation 7.83 8.63  
Snow  
Snow 0.00 in 0.00 in T in (2011)
Month to date snowfall 0.0 0.0  
Since 1 June snowfall 0.0 0.0  
Since 1 July snowfall 0.0 0.0  
Snow Depth 0.00 in    
Sea Level Pressure  
Sea Level Pressure 30.08 in    
Wind  
Wind Speed 10 mph (ENE)    
Max Wind Speed 24 mph    
Max Gust Speed 29 mph    
Visibility 10 miles    
Events      
T = Trace of Precipitation, MM = Missing Value Source: NWS Daily Summary

Daily Weather History Graph

Daily Weather History Graph

Search for Another Location

Airport or City:

Trip Planner

Search our weather history database for the weather conditions in past years. The results will help you decide how hot, cold, wet, or windy it might be!

Date:

Astronomy

Jul. 14, 2013 Rise Set
Actual Time 5:38 AM MDT 9:01 PM MDT
Civil Twilight 5:01 AM MDT 9:38 PM MDT
Nautical Twilight 4:13 AM MDT 10:26 PM MDT
Astronomical Twilight 3:11 AM MDT 11:27 PM MDT
Moon 12:21 PM MDT (7/14) 11:50 PM MDT (7/14)
Length of Visible Light 16h 36m
Length of Day
15h 23m
Waxing Crescent, 35% of the Moon is Illuminated
Jul 14
Waxing Crescent
Jul 15
First Quarter
Jul 22
Full
Jul 29
Last Quarter
Aug 6
New

Hourly Weather History & Observations

Time (MDT) Temp. Dew Point Humidity Pressure Visibility Wind Dir Wind Speed Gust Speed Precip Events Conditions
12:53 AM 62.1 °F 52.0 °F 70% 30.16 in 10.0 mi East 10.4 mph - N/A   Partly Cloudy
1:53 AM 62.1 °F 48.9 °F 62% 30.15 in 10.0 mi NE 9.2 mph - N/A   Scattered Clouds
2:53 AM 60.1 °F 50.0 °F 69% 30.15 in 10.0 mi North 8.1 mph - N/A   Mostly Cloudy
3:53 AM 59.0 °F 50.0 °F 72% 30.15 in 10.0 mi NNE 6.9 mph - N/A   Scattered Clouds
4:53 AM 57.0 °F 48.9 °F 74% 30.17 in 10.0 mi NNE 8.1 mph - N/A   Scattered Clouds
5:53 AM 57.9 °F 50.0 °F 75% 30.18 in 10.0 mi NE 5.8 mph - N/A   Mostly Cloudy
6:53 AM 59.0 °F 51.1 °F 75% 30.19 in 10.0 mi NNE 5.8 mph - N/A   Mostly Cloudy
7:53 AM 63.0 °F 52.0 °F 67% 30.18 in 10.0 mi NE 5.8 mph - N/A   Scattered Clouds
8:53 AM 66.9 °F 48.0 °F 51% 30.16 in 10.0 mi East 10.4 mph - N/A   Partly Cloudy
9:53 AM 72.0 °F 42.1 °F 34% 30.15 in 10.0 mi East 11.5 mph - N/A   Partly Cloudy
10:53 AM 73.9 °F 42.1 °F 32% 30.13 in 10.0 mi ESE 13.8 mph - N/A   Partly Cloudy
11:53 AM 75.0 °F 46.9 °F 37% 30.12 in 10.0 mi ESE 8.1 mph - N/A   Partly Cloudy
12:53 PM 77.0 °F 50.0 °F 39% 30.10 in 10.0 mi East 8.1 mph 16.1 mph N/A   Partly Cloudy
1:53 PM 80.1 °F 51.1 °F 36% 30.07 in 10.0 mi SE 9.2 mph - N/A   Partly Cloudy
2:53 PM 82.9 °F 51.1 °F 33% 30.04 in 10.0 mi East 11.5 mph - N/A   Partly Cloudy
3:53 PM 82.9 °F 51.1 °F 33% 30.01 in 10.0 mi NNE 10.4 mph - N/A   Partly Cloudy
4:53 PM 84.9 °F 51.1 °F 31% 30.00 in 10.0 mi NE 12.7 mph 23.0 mph N/A   Partly Cloudy
5:53 PM 84.0 °F 51.1 °F 32% 29.99 in 10.0 mi ENE 16.1 mph 23.0 mph N/A   Partly Cloudy
6:53 PM 82.0 °F 51.1 °F 34% 29.98 in 10.0 mi ENE 17.3 mph - N/A   Partly Cloudy
7:53 PM 79.0 °F 52.0 °F 39% 29.98 in 10.0 mi ENE 15.0 mph - N/A   Partly Cloudy
8:53 PM 75.0 °F 52.0 °F 44% 29.98 in 10.0 mi ENE 11.5 mph - N/A   Partly Cloudy
9:53 PM 72.0 °F 52.0 °F 49% 29.99 in 10.0 mi ENE 6.9 mph - N/A   Partly Cloudy
10:53 PM 70.0 °F 53.1 °F 55% 29.98 in 10.0 mi NE 8.1 mph - N/A   Clear
11:53 PM 68.0 °F 55.0 °F 63% 29.98 in 10.0 mi NNE 5.8 mph - N/A   Clear